QPF
0.00 0.00 0.00 0.00 0.00 0.00 0.00 0.00 0.00 0.00 0.00 0.00 0.00 0.00 0.00 0.00 0.00 0.00 0.00 0.00 0.00 0.00 0.00 0.01 0.02 0.01 0.00 0.01 0.00 0.00 0.00 0.00 0.00 0.00 0.00 0.00 0.00 0.00 0.00 0.00 0.00 0.00 0.00
0.00 0.00 0.00 0.00 0.00 0.00 0.00 0.00 0.00 0.00 0.00 0.00 0.00 0.00 0.00 0.00 0.00 0.00 0.00 0.00 0.00 0.00 0.00 0.00 0.00 0.00 0.00 0.01 0.00 0.00 0.00 0.00 0.00 0.00 0.00 0.00 0.00 0.00 0.00 0.00 0.00 0.00 0.00
0.00 0.00 0.00 0.00 0.00 0.00 0.00 0.00 0.00 0.00 0.00 0.00 0.00 0.00 0.00 0.00 0.00 0.00 0.00 0.00 0.00 0.00 0.00 0.00 0.00 0.00 0.00 0.00 0.00 0.00 0.00 0.00 0.00 0.00 0.00 0.00 0.00 0.00 0.00 0.00 0.00 0.00 0.00
0.00 0.00 0.00 0.00 0.00 0.00 0.00 0.00 0.00 0.00 0.00 0.00 0.00 0.00 0.00 0.00 0.00 0.00 0.00 0.00 0.00 0.00 0.00 0.00 0.00 0.00 0.00 0.00 0.00 0.00 0.00 0.00 0.00 0.00 0.00 0.00 0.00 0.00 0.00 0.00 0.00 0.00 0.00
0.00 0.00 0.00 0.00 0.00 0.00 0.00 0.00 0.00 0.00 0.00 0.00 0.00 0.00 0.00 0.00 0.00 0.00 0.00 0.00 0.00 0.00 0.00 0.00 0.00 0.00 0.00 0.00 0.00 0.00 0.00 0.00 0.00 0.00 0.00 0.00 0.00 0.00 0.00 0.00 0.00 0.00 0.00
0.00 0.00 0.00 0.00 0.00 0.00 0.00 0.00 0.00 0.00 0.00 0.00 0.00 0.00 0.00 0.00 0.00 0.00 0.00 0.00 0.00 0.00 0.00 0.00 0.00 0.00 0.00 0.00 0.00 0.00 0.00 0.00 0.00 0.00 0.00 0.00 0.00 0.00 0.00 0.00 0.00 0.00 0.00
0.00 0.00 0.00 0.00 0.00 0.00 0.00 0.00 0.00 0.00 0.00 0.00 0.00 0.00 0.00 0.00 0.00 0.00 0.00 0.00 0.00 0.00 0.00 0.00 0.00 0.00 0.00 0.00 0.00 0.00 0.00 0.00 0.00 0.00 0.00 0.00 0.00 0.00 0.00 0.00 0.00 0.00 0.00
0.00 0.00 0.00 0.00 0.00 0.00 0.00 0.00 0.00 0.00 0.00 0.00 0.00 0.00 0.00 0.00 0.00 0.00 0.00 0.00 0.00 0.00 0.00 0.00 0.00 0.00 0.00 0.00 0.00 0.00 0.00 0.00 0.00 0.00 0.00 0.00 0.00 0.00 0.00 0.00 0.00 0.00 0.00
0.00 0.00 0.00 0.00 0.00 0.00 0.00 0.00 0.00 0.00 0.00 0.00 0.00 0.00 0.00 0.00 0.00 0.00 0.00 0.00 0.00 0.00 0.00 0.00 0.00 0.00 0.00 0.00 0.00 0.00 0.00 0.00 0.00 0.00 0.00 0.00 0.00 0.00 0.00 0.00 0.00 0.00 0.00
0.00 0.00 0.00 0.00 0.00 0.00 0.00 0.00 0.00 0.00 0.00 0.00 0.00 0.00 0.00 0.00 0.00 0.00 0.00 0.00 0.00 0.00 0.00 0.00 0.00 0.00 0.00 0.00 0.00 0.00 0.00 0.00 0.00 0.00 0.00 0.00 0.00 0.00 0.00 0.00 0.00 0.00 0.00
0.00 0.00 0.00 0.00 0.00 0.00 0.00 0.00 0.00 0.00 0.00 0.00 0.00 0.00 0.00 0.00 0.00 0.00 0.00 0.00 0.00 0.00 0.00 0.00 0.00 0.00 0.00 0.00 0.00 0.00 0.00 0.00 0.00 0.00 0.00 0.00 0.00 0.00 0.00 0.00 0.00 0.00 0.00
0.00 0.00 0.00 0.00 0.00 0.00 0.00 0.00 0.00 0.00 0.00 0.00 0.00 0.00 0.00 0.00 0.00 0.00 0.00 0.00 0.00 0.00 0.00 0.00 0.00 0.00 0.00 0.00 0.00 0.00 0.00 0.00 0.00 0.00 0.00 0.00 0.00 0.00 0.00 0.00 0.00 0.00 0.00
0.00 0.00 0.00 0.00 0.00 0.00 0.00 0.01 0.00 0.00 0.00 0.00 0.00 0.00 0.00 0.00 0.00 0.00 0.00 0.00 0.00 0.00 0.00 0.00 0.00 0.00 0.00 0.00 0.00 0.00 0.00 0.00 0.00 0.00 0.00 0.00 0.00 0.00 0.00 0.00 0.00 0.00 0.00
0.02 0.01 0.00 0.01 0.00 0.00 0.00 0.00 0.00 0.00 0.00 0.00 0.00 0.00 0.00 0.00 0.00 0.00 0.00 0.00 0.00 0.00 0.00 0.00 0.00 0.00 0.00 0.00 0.00 0.00 0.00 0.00 0.00 0.00 0.00 0.00 0.00 0.00 0.00 0.00 0.00 0.00 0.00
0.05 0.03 0.01 0.00 0.00 0.00 0.00 0.00 0.00 0.00 0.00 0.00 0.00 0.00 0.00 0.00 0.00 0.00 0.00 0.00 0.00 0.00 0.00 0.00 0.00 0.00 0.00 0.00 0.00 0.00 0.00 0.00 0.00 0.00 0.00 0.00 0.00 0.00 0.00 0.00 0.00 0.00 0.00
0.01 0.02 0.02 0.01 0.01 0.01 0.03 0.03 0.01 0.00 0.00 0.00 0.00 0.00 0.00 0.00 0.00 0.00 0.00 0.00 0.00 0.00 0.00 0.00 0.00 0.00 0.00 0.00 0.00 0.00 0.00 0.00 0.00 0.00 0.00 0.00 0.00 0.00 0.00 0.00 0.00 0.00 0.00
0.00 0.00 0.01 0.01 0.01 0.00 0.01 0.01 0.01 0.01 0.00 0.00 0.00 0.00 0.00 0.00 0.00 0.00 0.00 0.00 0.00 0.00 0.00 0.00 0.00 0.00 0.00 0.00 0.00 0.00 0.00 0.00 0.00 0.00 0.00 0.00 0.00 0.00 0.00 0.00 0.00 0.00 0.00
0.00 0.00 0.01 0.00 0.00 0.00 0.00 0.00 0.01 0.01 0.01 0.00 0.00 0.00 0.00 0.00 0.00 0.00 0.00 0.00 0.00 0.00 0.00 0.00 0.00 0.00 0.00 0.00 0.00 0.00 0.00 0.00 0.00 0.00 0.00 0.00 0.00 0.00 0.00 0.00 0.00 0.00 0.00
0.00 0.00 0.00 0.00 0.00 0.00 0.00 0.00 0.00 0.00 0.00 0.00 0.00 0.00 0.00 0.00 0.00 0.00 0.00 0.00 0.00 0.00 0.00 0.00 0.00 0.00 0.00 0.00 0.00 0.00 0.00 0.00 0.00 0.00 0.00 0.00 0.00 0.00 0.00 0.00 0.00 0.00 0.00
0.00 0.00 0.00 0.00 0.00 0.00 0.00 0.00 0.01 0.00 0.00 0.00 0.00 0.00 0.00 0.00 0.00 0.00 0.00 0.00 0.00 0.00 0.00 0.00 0.00 0.00 0.00 0.00 0.00 0.00 0.00 0.00 0.00 0.00 0.00 0.00 0.00 0.00 0.00 0.00 0.00 0.00 0.00
0.00 0.00 0.00 0.00 0.00 0.00 0.01 0.01 0.01 0.02 0.01 0.00 0.00 0.00 0.00 0.00 0.00 0.00 0.00 0.00 0.00 0.00 0.00 0.00 0.00 0.00 0.00 0.00 0.00 0.00 0.00 0.00 0.00 0.00 0.00 0.00 0.00 0.00 0.00 0.00 0.00 0.00 0.00
0.00 0.00 0.00 0.00 0.01 0.03 0.01 0.01 0.01 0.02 0.01 0.00 0.00 0.00 0.00 0.00 0.00 0.00 0.00 0.00 0.00 0.00 0.00 0.00 0.00 0.00 0.00 0.00 0.00 0.00 0.00 0.00 0.00 0.00 0.00 0.00 0.00 0.00 0.00 0.00 0.00 0.00 0.00
0.00 0.00 0.00 0.00 0.02 0.01 0.00 0.00 0.01 0.01 0.02 0.01 0.00 0.00 0.00 0.00 0.00 0.00 0.00 0.00 0.00 0.00 0.00 0.00 0.00 0.00 0.00 0.00 0.00 0.00 0.00 0.00 0.00 0.00 0.00 0.00 0.00 0.00 0.00 0.00 0.00 0.00 0.00
0.01 0.02 0.01 0.00 0.01 0.00 0.00 0.00 0.00 0.00 0.00 0.00 0.00 0.00 0.00 0.00 0.00 0.00 0.00 0.00 0.00 0.00 0.00 0.00 0.00 0.00 0.00 0.00 0.00 0.00 0.00 0.00 0.00 0.00 0.00 0.00 0.00 0.00 0.00 0.00 0.00 0.00 0.00
0.05 0.03 0.01 0.00 0.00 0.00 0.00 0.00 0.00 0.00 0.00 0.00 0.00 0.00 0.00 0.00 0.00 0.00 0.00 0.00 0.00 0.00 0.00 0.00 0.00 0.00 0.00 0.00 0.00 0.00 0.00 0.00 0.00 0.00 0.00 0.00 0.00 0.00 0.00 0.00 0.00 0.00 0.00
0.03 0.00 0.00 0.00 0.00 0.00 0.00 0.00 0.00 0.00 0.00 0.00 0.00 0.00 0.00 0.00 0.00 0.00 0.00 0.00 0.00 0.00 0.00 0.00 0.00 0.01 0.00 0.00 0.00 0.00 0.00 0.00 0.00 0.00 0.00 0.00 0.00 0.00 0.00 0.00 0.00 0.00 0.00
MSLP
1023.57 1023.43 1023.34 1023.21 1022.89 1022.70 1022.46 1022.18 1021.83 1021.67 1021.27 1021.06 1020.81 1020.61 1020.35 1020.06 1019.76 1019.50 1019.17 1018.89 1018.65 1018.46 1018.41 1018.07 1017.71 1017.36 1017.43 1017.53 1017.47 1017.45 1017.87 1018.12 1018.87 1019.38 1019.32 1019.53 1019.87 1020.06 1020.05 1020.26 1020.40 1020.67 1020.81
1023.34 1023.20 1023.13 1022.98 1022.66 1022.65 1022.26 1021.99 1021.48 1021.37 1020.98 1020.91 1020.79 1020.66 1020.45 1020.19 1019.99 1019.72 1019.45 1019.17 1018.91 1018.88 1018.68 1018.41 1018.15 1017.82 1017.74 1017.79 1017.93 1018.07 1018.23 1018.40 1018.77 1019.67 1019.82 1019.94 1020.00 1020.18 1020.31 1020.44 1020.46 1020.41 1020.57
1023.02 1022.97 1022.89 1022.74 1022.45 1022.37 1022.02 1021.68 1021.41 1021.30 1021.01 1020.80 1020.72 1020.63 1020.53 1020.42 1020.16 1019.74 1019.56 1019.38 1019.34 1019.23 1019.07 1018.88 1018.90 1018.51 1018.69 1018.59 1018.53 1018.63 1018.78 1018.96 1019.43 1019.83 1020.31 1020.29 1020.27 1020.31 1020.49 1020.40 1020.34 1020.30 1020.14
1022.65 1022.57 1022.53 1022.39 1022.14 1021.93 1021.86 1021.52 1021.17 1021.07 1020.83 1020.79 1020.82 1020.69 1020.56 1020.49 1020.37 1019.99 1019.80 1019.58 1019.54 1019.39 1019.26 1019.13 1019.07 1019.07 1019.15 1019.10 1019.08 1019.13 1019.03 1019.32 1019.52 1019.92 1020.35 1020.48 1020.45 1020.38 1020.42 1020.58 1020.55 1020.22 1020.08
1022.43 1022.17 1022.00 1021.79 1021.65 1021.47 1021.45 1021.30 1021.10 1020.90 1020.72 1020.67 1020.81 1020.79 1020.71 1020.56 1020.40 1020.30 1020.17 1019.98 1019.90 1019.77 1019.51 1019.36 1019.23 1019.15 1019.06 1019.09 1019.21 1019.42 1019.43 1019.65 1019.84 1020.07 1020.46 1020.53 1020.54 1020.53 1020.61 1020.59 1020.58 1020.46 1020.05
1022.02 1021.90 1021.62 1021.36 1021.20 1021.07 1021.13 1021.03 1020.92 1020.82 1020.73 1020.61 1020.57 1020.67 1020.76 1020.57 1020.42 1020.35 1020.37 1020.19 1019.98 1019.91 1019.78 1019.63 1019.43 1019.33 1019.28 1019.33 1019.34 1019.34 1019.35 1019.63 1019.88 1020.20 1020.47 1020.60 1020.52 1020.40 1020.50 1020.60 1020.71 1020.87 1020.67
1021.72 1021.55 1021.38 1021.11 1020.98 1020.83 1020.72 1020.81 1020.81 1020.80 1020.63 1020.69 1020.57 1020.64 1020.73 1020.55 1020.48 1020.41 1020.31 1020.15 1019.97 1019.78 1019.72 1019.71 1019.67 1019.67 1019.63 1019.57 1019.48 1019.42 1019.33 1019.45 1019.57 1019.84 1020.16 1020.24 1020.24 1020.17 1020.34 1020.59 1020.72 1020.80 1020.73
1021.28 1021.12 1020.94 1020.87 1020.75 1020.68 1020.62 1020.63 1020.69 1020.70 1020.63 1020.50 1020.47 1020.53 1020.74 1020.50 1020.39 1020.39 1020.30 1020.14 1019.89 1019.66 1019.50 1019.53 1019.68 1019.64 1019.70 1019.65 1019.61 1019.49 1019.50 1019.42 1019.42 1019.54 1019.74 1019.79 1019.85 1019.94 1020.15 1020.38 1020.54 1020.60 1020.44
1020.88 1020.71 1020.55 1020.46 1020.57 1020.46 1020.43 1020.47 1020.43 1020.48 1020.44 1020.28 1020.15 1020.35 1020.41 1020.30 1020.18 1020.26 1020.26 1020.20 1019.99 1019.67 1019.50 1019.35 1019.42 1019.59 1019.60 1019.66 1019.77 1019.84 1019.82 1019.54 1019.20 1019.33 1019.38 1019.43 1019.53 1019.68 1019.82 1020.25 1020.63 1020.72 1020.78
1020.44 1020.20 1020.09 1020.06 1020.14 1020.31 1020.16 1020.12 1020.01 1020.00 1019.97 1019.96 1019.88 1019.91 1020.04 1020.03 1020.04 1020.03 1020.15 1020.20 1020.20 1019.89 1019.46 1019.35 1019.30 1019.55 1019.65 1019.77 1019.91 1020.15 1020.21 1020.03 1019.75 1019.56 1019.46 1019.32 1019.28 1019.38 1019.53 1019.64 1020.03 1020.54 1020.78
1019.98 1019.84 1019.73 1019.64 1019.71 1019.73 1019.70 1019.69 1019.55 1019.65 1019.51 1019.67 1019.62 1019.42 1019.49 1019.42 1019.51 1019.65 1019.83 1019.95 1020.07 1020.04 1019.86 1019.71 1019.63 1019.63 1019.71 1019.80 1019.90 1020.08 1020.11 1019.92 1019.85 1019.81 1019.57 1019.29 1019.06 1019.12 1019.19 1019.28 1019.43 1019.77 1020.08
1019.39 1019.36 1019.46 1019.14 1019.18 1019.09 1019.22 1019.26 1019.31 1019.33 1019.34 1019.36 1019.51 1019.31 1018.91 1018.78 1018.88 1019.04 1019.27 1019.43 1019.66 1019.90 1019.85 1019.63 1019.53 1019.48 1019.59 1019.72 1019.76 1019.74 1019.84 1019.85 1019.88 1019.92 1019.82 1019.41 1019.20 1019.06 1018.90 1018.75 1018.86 1018.96 1019.01
1019.11 1018.94 1018.87 1018.76 1018.54 1018.57 1018.76 1018.86 1019.12 1019.21 1019.07 1018.95 1019.02 1018.80 1018.43 1018.17 1018.13 1018.31 1018.55 1018.88 1019.24 1019.40 1019.34 1019.18 1019.22 1019.28 1019.32 1019.41 1019.39 1019.40 1019.51 1019.73 1019.91 1020.04 1019.91 1019.62 1019.13 1018.80 1018.61 1018.62 1018.58 1018.63 1018.68
1019.01 1018.98 1018.54 1018.47 1018.24 1018.13 1018.17 1018.41 1018.65 1018.66 1018.70 1018.69 1018.72 1018.59 1018.21 1017.93 1017.88 1017.88 1018.08 1018.40 1018.85 1018.99 1019.02 1019.06 1019.06 1018.99 1018.97 1019.03 1019.14 1019.01 1019.07 1019.20 1019.39 1019.56 1019.56 1019.17 1018.92 1018.70 1018.62 1018.41 1018.45 1018.44 1018.83
1018.78 1019.03 1018.70 1018.30 1018.10 1017.90 1017.76 1017.82 1017.99 1017.71 1017.82 1017.85 1017.91 1018.08 1018.08 1017.87 1017.39 1017.13 1017.57 1018.02 1018.30 1018.54 1018.95 1019.10 1019.14 1019.04 1018.89 1018.82 1018.70 1018.57 1018.48 1018.55 1018.81 1018.81 1018.99 1019.01 1018.86 1018.54 1018.31 1018.20 1018.26 1018.49 1018.70
1019.06 1019.04 1019.12 1018.65 1018.16 1017.78 1017.55 1017.40 1017.38 1017.19 1016.97 1016.98 1016.97 1017.21 1017.02 1017.04 1016.84 1016.89 1016.98 1017.45 1017.91 1018.36 1018.87 1018.98 1018.93 1018.81 1018.74 1018.55 1018.41 1018.15 1017.83 1017.70 1017.86 1018.16 1018.35 1018.51 1018.59 1018.35 1018.28 1018.18 1018.25 1018.52 1018.54
1019.71 1019.52 1019.06 1018.55 1018.36 1018.16 1017.67 1017.45 1017.32 1016.54 1016.42 1016.33 1016.30 1016.39 1016.43 1016.35 1016.40 1016.54 1016.84 1017.11 1017.55 1018.17 1018.52 1018.57 1018.59 1018.52 1018.29 1018.10 1018.00 1017.91 1017.55 1017.09 1017.07 1017.38 1017.82 1018.10 1017.96 1017.93 1018.04 1018.07 1018.09 1018.11 1018.03
1019.64 1019.30 1018.95 1018.64 1018.60 1018.27 1017.61 1017.29 1016.96 1016.71 1016.62 1016.43 1015.90 1015.96 1015.73 1015.77 1016.11 1016.05 1016.61 1017.46 1018.20 1018.08 1017.92 1017.88 1017.89 1017.82 1017.71 1017.58 1017.48 1017.43 1017.00 1017.16 1017.17 1017.43 1017.56 1017.56 1017.63 1017.60 1017.65 1017.81 1017.88 1017.93 1017.95
1019.73 1019.25 1018.77 1018.49 1018.27 1017.89 1017.52 1017.00 1016.67 1016.30 1016.16 1016.23 1016.10 1015.61 1015.39 1015.70 1015.88 1016.27 1016.70 1016.64 1017.05 1017.09 1017.15 1017.12 1017.03 1016.96 1016.83 1016.66 1016.50 1016.43 1016.60 1016.89 1016.79 1017.11 1017.26 1017.34 1017.36 1017.47 1017.48 1017.55 1017.58 1017.51 1017.64
1019.62 1019.12 1018.77 1018.25 1017.81 1017.68 1017.42 1016.90 1016.51 1015.98 1015.95 1015.62 1015.24 1015.51 1015.55 1015.92 1015.79 1016.00 1016.16 1016.33 1016.47 1016.34 1016.27 1016.28 1015.99 1016.03 1016.03 1015.97 1015.90 1015.94 1016.21 1016.45 1016.55 1016.64 1016.66 1016.77 1016.90 1017.05 1017.20 1017.24 1017.29 1017.35 1017.37
1019.69 1019.09 1018.56 1018.21 1017.76 1017.45 1017.13 1016.70 1016.22 1015.80 1015.52 1015.24 1015.12 1014.89 1014.73 1015.13 1014.94 1014.86 1014.92 1015.10 1015.26 1015.21 1015.12 1015.13 1015.05 1015.04 1015.03 1015.11 1015.18 1015.61 1015.68 1015.66 1015.78 1015.92 1016.14 1016.27 1016.46 1016.76 1016.71 1016.75 1016.91 1017.01 1017.01
1019.51 1019.08 1018.55 1018.04 1017.45 1017.18 1016.92 1016.63 1016.15 1015.64 1015.39 1015.08 1015.00 1014.97 1014.67 1014.56 1014.26 1013.91 1013.92 1013.99 1013.96 1013.95 1013.92 1014.05 1014.05 1013.97 1014.04 1014.20 1014.50 1014.71 1015.01 1015.21 1015.24 1015.38 1015.61 1015.85 1016.06 1016.23 1016.16 1016.24 1016.48 1016.57 1016.67
1019.30 1018.88 1018.48 1018.07 1017.69 1017.38 1017.04 1016.67 1016.31 1016.02 1015.65 1015.08 1014.64 1014.24 1014.13 1013.86 1013.50 1013.14 1013.03 1013.16 1013.13 1012.83 1012.86 1013.04 1012.98 1013.11 1013.03 1012.94 1013.42 1013.28 1013.75 1014.10 1014.24 1014.58 1015.08 1015.47 1015.68 1015.76 1015.86 1016.08 1016.10 1016.22 1016.36
1019.39 1018.94 1018.57 1018.38 1018.07 1017.83 1017.33 1016.72 1016.38 1016.05 1015.75 1015.24 1014.50 1013.89 1013.39 1013.25 1013.16 1012.76 1012.38 1012.44 1012.61 1012.53 1012.28 1011.91 1011.91 1011.97 1012.01 1011.93 1012.47 1012.33 1012.57 1012.93 1013.30 1013.68 1014.08 1014.60 1014.99 1015.24 1015.49 1015.69 1015.74 1015.74 1015.85
1019.64 1019.37 1018.97 1018.95 1018.74 1018.31 1017.75 1017.20 1016.69 1016.10 1015.61 1015.07 1014.35 1013.84 1013.17 1012.73 1012.62 1012.26 1012.05 1011.84 1011.60 1011.97 1011.78 1011.23 1011.14 1010.93 1011.21 1011.24 1011.52 1011.74 1011.96 1012.36 1012.59 1012.99 1013.43 1013.88 1014.26 1014.56 1014.89 1015.12 1015.26 1015.35 1015.41
1019.81 1019.72 1019.52 1019.29 1019.02 1018.61 1018.07 1017.44 1016.87 1016.26 1015.56 1014.74 1014.12 1013.57 1013.09 1012.58 1012.30 1012.07 1011.74 1011.74 1011.27 1011.10 1011.17 1010.80 1010.79 1010.88 1010.55 1010.57 1010.75 1011.10 1011.30 1011.70 1012.05 1012.22 1012.63 1013.18 1013.58 1013.99 1014.32 1014.49 1014.62 1014.86 1014.94
Thickness
5545 5541 5537 5535 5535 5534 5532 5529 5527 5521 5519 5516 5514 5514 5514 5514 5515 5515 5516 5517 5517 5517 5517 5520 5523 5527 5529 5531 5534 5538 5538 5538 5534 5534 5537 5538 5538 5538 5539 5538 5537 5535 5535
5544 5540 5538 5536 5536 5533 5533 5530 5530 5526 5524 5520 5518 5515 5515 5515 5514 5514 5516 5517 5520 5519 5519 5522 5525 5530 5532 5534 5535 5536 5537 5538 5538 5534 5534 5535 5536 5536 5536 5536 5536 5537 5537
5545 5541 5538 5537 5536 5534 5533 5533 5531 5529 5528 5523 5521 5519 5517 5515 5516 5518 5518 5519 5519 5520 5521 5523 5523 5527 5527 5529 5531 5533 5535 5536 5535 5533 5532 5533 5535 5536 5536 5537 5539 5540 5541
5546 5542 5540 5538 5537 5536 5534 5535 5534 5533 5531 5528 5524 5523 5521 5519 5518 5519 5520 5520 5521 5522 5523 5525 5526 5526 5527 5529 5531 5533 5536 5537 5538 5535 5534 5535 5537 5539 5539 5539 5539 5542 5541
5545 5543 5542 5542 5540 5539 5536 5536 5536 5535 5534 5532 5527 5525 5524 5523 5522 5521 5522 5522 5523 5524 5526 5527 5529 5531 5533 5534 5533 5533 5535 5536 5536 5537 5536 5537 5539 5540 5541 5540 5540 5540 5541
5545 5542 5542 5542 5543 5541 5537 5537 5537 5536 5535 5535 5533 5530 5527 5527 5526 5525 5524 5525 5527 5528 5529 5530 5532 5534 5536 5537 5538 5539 5540 5539 5539 5538 5538 5540 5542 5543 5542 5541 5539 5537 5535
5543 5542 5541 5541 5542 5541 5539 5537 5536 5536 5536 5535 5534 5533 5531 5531 5531 5530 5530 5531 5532 5534 5535 5536 5537 5537 5538 5539 5542 5544 5546 5546 5546 5545 5544 5543 5544 5545 5544 5541 5538 5536 5534
5543 5542 5540 5539 5540 5540 5539 5537 5536 5536 5537 5537 5537 5536 5533 5534 5536 5534 5534 5535 5537 5539 5541 5541 5541 5542 5543 5544 5546 5547 5548 5549 5549 5549 5548 5548 5547 5547 5545 5542 5539 5536 5534
5540 5541 5540 5539 5537 5538 5538 5538 5537 5537 5538 5539 5541 5539 5539 5538 5540 5539 5539 5538 5541 5543 5545 5548 5547 5547 5548 5547 5547 5548 5548 5549 5551 5551 5551 5551 5549 5547 5545 5540 5536 5533 5529
5540 5539 5538 5538 5537 5535 5537 5538 5539 5539 5540 5541 5542 5542 5542 5542 5543 5543 5542 5541 5542 5545 5549 5550 5551 5550 5550 5549 5548 5546 5545 5546 5547 5549 5550 5550 5549 5548 5545 5542 5536 5531 5524
5537 5536 5536 5536 5535 5534 5535 5537 5540 5540 5542 5541 5543 5544 5545 5547 5547 5547 5545 5544 5544 5545 5547 5549 5550 5550 5550 5550 5548 5546 5547 5547 5547 5545 5547 5548 5550 5548 5545 5542 5538 5532 5524
5534 5535 5532 5534 5534 5536 5535 5536 5537 5539 5540 5540 5540 5543 5547 5550 5551 5551 5549 5548 5547 5546 5547 5549 5550 5551 5551 5550 5549 5549 5547 5546 5545 5543 5544 5547 5547 5545 5543 5541 5537 5534 5530
5529 5530 5531 5532 5533 5534 5533 5533 5532 5533 5536 5540 5542 5546 5548 5551 5553 5554 5554 5551 5549 5548 5550 5552 5552 5552 5551 5550 5550 5550 5548 5545 5543 5542 5540 5542 5543 5543 5541 5538 5535 5532 5528
5524 5524 5527 5527 5529 5530 5531 5529 5529 5530 5530 5533 5536 5540 5546 5548 5550 5553 5553 5552 5550 5549 5550 5550 5550 5551 5551 5550 5549 5550 5549 5546 5543 5541 5539 5539 5540 5539 5537 5535 5531 5528 5520
5514 5513 5517 5521 5521 5525 5527 5528 5527 5531 5532 5533 5536 5538 5539 5542 5550 5554 5552 5550 5550 5549 5546 5545 5545 5547 5548 5548 5549 5549 5549 5547 5543 5541 5538 5535 5534 5533 5532 5529 5526 5521 5516
5504 5505 5503 5508 5511 5517 5522 5523 5525 5527 5531 5532 5536 5538 5542 5544 5547 5549 5551 5550 5547 5544 5542 5541 5541 5542 5543 5545 5546 5547 5549 5548 5544 5540 5536 5532 5530 5529 5526 5523 5519 5514 5509
5489 5490 5494 5500 5503 5505 5511 5515 5517 5525 5527 5531 5533 5534 5537 5543 5544 5544 5544 5544 5541 5538 5536 5536 5536 5538 5540 5542 5543 5544 5544 5546 5544 5539 5534 5529 5528 5525 5520 5517 5514 5510 5507
5479 5483 5486 5490 5490 5495 5502 5506 5512 5516 5519 5521 5529 5531 5535 5536 5538 5541 5538 5533 5529 5530 5533 5534 5535 5536 5538 5539 5539 5540 5541 5537 5536 5531 5528 5525 5521 5520 5516 5511 5508 5504 5499
5469 5471 5476 5479 5481 5486 5492 5499 5503 5510 5514 5516 5518 5526 5528 5527 5529 5529 5527 5532 5531 5531 5531 5532 5534 5535 5536 5537 5538 5537 5534 5530 5529 5524 5521 5518 5514 5512 5509 5505 5501 5499 5494
5458 5461 5463 5468 5473 5476 5482 5490 5496 5502 5506 5513 5518 5516 5520 5519 5522 5522 5522 5523 5524 5526 5528 5530 5533 5532 5532 5533 5533 5531 5527 5524 5522 5519 5516 5513 5509 5506 5503 5500 5496 5493 5489
5442 5447 5451 5455 5461 5466 5472 5481 5488 5495 5500 5506 5509 5513 5515 5518 5525 5525 5525 5524 5524 5526 5528 5529 5530 5530 5530 5529 5528 5524 5522 5521 5518 5515 5511 5508 5505 5501 5498 5495 5492 5488 5485
5426 5431 5437 5443 5450 5457 5463 5469 5478 5486 5491 5497 5501 5503 5506 5513 5519 5524 5524 5525 5526 5528 5529 5529 5529 5529 5529 5528 5525 5522 5518 5516 5514 5511 5508 5504 5500 5497 5496 5494 5490 5486 5482
5408 5416 5423 5431 5438 5444 5451 5457 5465 5471 5478 5489 5496 5503 5505 5511 5516 5521 5524 5525 5526 5528 5530 5529 5529 5528 5529 5530 5526 5526 5521 5516 5515 5512 5505 5501 5498 5495 5492 5489 5486 5482 5477
5395 5405 5413 5419 5426 5430 5438 5447 5453 5460 5467 5476 5487 5498 5503 5506 5509 5515 5521 5523 5523 5525 5528 5531 5531 5530 5531 5529 5526 5526 5523 5520 5516 5512 5507 5501 5496 5492 5488 5484 5482 5479 5475
5395 5399 5403 5407 5413 5419 5428 5436 5443 5451 5461 5470 5480 5488 5497 5503 5505 5511 5515 5518 5522 5520 5523 5529 5530 5531 5529 5528 5525 5523 5520 5517 5513 5508 5504 5499 5495 5490 5485 5481 5478 5475 5473
5392 5394 5396 5401 5408 5414 5422 5430 5436 5443 5453 5465 5474 5483 5490 5497 5500 5505 5510 5512 5517 5519 5519 5524 5524 5522 5525 5526 5524 5519 5517 5515 5512 5509 5503 5498 5493 5488 5483 5480 5477 5472 5469